Location: Ellingshausen
(50.5460°N, 10.4723°E)
Time: 12:48:18
(UTC+00:00)

Cosmos 676 Rocket - Pass Details

Date: 14 April 2026
Orbit: 750 x 779 km, 74.0° (Epoch: 19 May)

Event Time Altitude Azimuth Distance (km) Brightness Sun altitude
Rises 21:11:13 0° 341° (NNW) 3,273 8.5 -23.8°
Reaches altitude 10° 21:15:23 10° 13° (NNE) 2,337 7.0 -24.1°
Maximum altitude 21:17:21 12° 35° (NE) 2,199 6.6 -24.3°
Drops below altitude 10° 21:19:18 10° 57° (ENE) 2,328 6.5 -24.5°
Enters shadow 21:20:32 - 68° (ENE) 2,528 6.6 -24.6°
